THORAD DELTA 1 DEB, 8182

Orbit data source: Space-Track

THORAD DELTA 1 DEB, 8182 is space debris in SSO originally from a launch on Fri, 15 Nov 1974 UTC launched from the Air Force Western Test Range (AFWTR). Debris objects in space refer to the collection of defunct objects orbiting the Earth. Examples of debris include non-operational satellites, rocket bodies, and fragments generated from explosions, collisions, or faulty payload assembly.

Loading next visibility...
Identifier
8182, 1974-089AY
Orbit
SSO
Country
Flag of USUS
Related business
Manufacturer
Unknown
Mission
Spacecraft
Bus & Motor
Unknown
Mass
Unknown
Launch date (UTC)
1974-11-15 (51 years ago)
Launch vehicle
Unknown
Launch site
Air Force Western Test Range (AFWTR)
Object type
Payload
Rocket body
Debris
Shape & HBR
Unknown shape, 0.1 m
Radar Cross Section
Small (<0.1 m²)

Expand to show TLE details & history
Last TLE update: 23 hours ago

TLE from 23 hours ago
0 THORAD DELTA 1 DEB
1 08182U 74089AY  26048.18177795  .00001795  00000-0  77107-2 0  9998
2 08182 100.3637 133.0979 0113526 359.2943  29.1568 12.81276066351195
Epoch: 2026-02-17T04:21Z
TLE epoch observation values (Epoch: 2026-02-17T04:21:45.614Z)
Latitude
28.61831°
Longitude
-85.20547°
Altitude
1,263.419 km
Speed
7.262 km/s
True Right ascension
08h 29m 36s
True Declination
28° 29' 01"
Sunlit
Object was in full shadow at epoch
Visualization orbit readout
Latitude
Unknown
Longitude
Unknown
Altitude
Unknown
Speed
Unknown
Apparent Right ascension
Unknown
Apparent Declination
Unknown
Sunlit
N/A
Visualization observer readout
Local Sidereal Time
06:39:33
Azimuth
Unknown
Elevation
Unknown
Doppler factor
Unknown
Orbital elements
Apogee altitude
1,421.321 km
Perigee altitude
1,246.221 km
Semi-major axis
7,711.908 km
Eccentricity
0.01135
Inclination
100.3637°
RAAN
133.0979°
Arg. of periapsis
359.2943°
True anomaly
29.79854°
Mean anomaly
29.1568°
Eccentric anomaly
29.47687°
Mean motion
3.2048 °/min
Orbital period
112.33 mins
BSTAR
0.0077107
Loading maneuver chart data...
Computing Atmospheric mass density...

Documentation

Showing up to 5 results
|